When you browse on this site, cookies collect data to enhance your experience and personalize the content and advertising you see.
Visit our Privacy Policy to learn more. By continuing to use the site, you agree to this use of cookies and data.
  • In Österreich
  • Länderverzeichnis
  • Für 7 Tage
  • Wassertemperatur
  • Wetterkarte
  • News
  • Widgets
  • user-avatar
    Anmelden

    Stündliche Wetter Mérida

    Heute, 17 Januar, Freitag

    Zeit Temperatur Niederschläge Wind Luftdruck Luftfeuchtigkeit
    00:00 +15°C° 0 mm 2 m/S 593 mmHg 88%
    01:00 +15°C° 0 mm 2 m/S 593 mmHg 88%
    02:00 +15°C° 0 mm 2 m/S 593 mmHg 89%
    03:00 +15°C° 0 mm 2 m/S 592 mmHg 89%
    04:00 +15°C° 0 mm 2 m/S 592 mmHg 89%
    05:00 +15°C° 0 mm 2 m/S 593 mmHg 88%
    06:00 +15°C° 0 mm 2 m/S 593 mmHg 87%
    07:00 +16°C° 0 mm 2 m/S 594 mmHg 86%
    08:00 +17°C° 0 mm 2 m/S 595 mmHg 79%
    09:00 +19°C° 0 mm 2 m/S 596 mmHg 73%
    10:00 +21°C° 0 mm 2 m/S 597 mmHg 67%
    11:00 +21°C° 0.1 mm 2 m/S 597 mmHg 66%
    12:00 +23°C° 0.1 mm 2 m/S 596 mmHg 65%
    13:00 +23°C° 0.1 mm 2 m/S 596 mmHg 64%
    14:00 +21°C° 0.2 mm 2 m/S 595 mmHg 68%
    15:00 +21°C° 0.2 mm 2 m/S 594 mmHg 72%
    16:00 +20°C° 0.2 mm 2 m/S 594 mmHg 77%
    17:00 +19°C° 0.2 mm 2 m/S 593 mmHg 82%
    18:00 +18°C° 0.2 mm 2 m/S 593 mmHg 87%
    19:00 +16°C° 0.2 mm 2 m/S 593 mmHg 92%
    20:00 +16°C° 0 mm 2 m/S 593 mmHg 91%
    21:00 +15°C° 0 mm 2 m/S 593 mmHg 89%
    22:00 +15°C° 0 mm 2 m/S 593 mmHg 88%
    23:00 +15°C° 0 mm 2 m/S 593 mmHg 88%

    Morgen, 18 Januar, Samstag

    Zeit Temperatur Niederschläge Wind Luftdruck Luftfeuchtigkeit
    00:00 +15°C° 0 mm 2 m/S 593 mmHg 88%
    01:00 +15°C° 0 mm 2 m/S 592 mmHg 88%
    02:00 +14°C° 0 mm 2 m/S 592 mmHg 88%
    03:00 +14°C° 0 mm 2 m/S 592 mmHg 87%
    04:00 +14°C° 0 mm 2 m/S 592 mmHg 86%
    05:00 +15°C° 0 mm 2 m/S 593 mmHg 86%
    06:00 +15°C° 0 mm 2 m/S 593 mmHg 85%
    07:00 +15°C° 0 mm 2 m/S 593 mmHg 84%
    08:00 +17°C° 0 mm 2 m/S 595 mmHg 79%
    09:00 +19°C° 0 mm 2 m/S 596 mmHg 73%
    10:00 +21°C° 0 mm 2 m/S 597 mmHg 68%
    11:00 +21°C° 0.2 mm 2 m/S 596 mmHg 70%
    12:00 +21°C° 0.2 mm 2 m/S 596 mmHg 73%
    13:00 +21°C° 0.2 mm 2 m/S 595 mmHg 76%
    14:00 +20°C° 0.4 mm 2 m/S 594 mmHg 78%
    15:00 +20°C° 0.4 mm 2 m/S 594 mmHg 81%
    16:00 +20°C° 0.4 mm 1 m/S 593 mmHg 83%
    17:00 +19°C° 0.1 mm 1 m/S 593 mmHg 86%
    18:00 +18°C° 0.1 mm 1 m/S 592 mmHg 89%
    19:00 +16°C° 0.1 mm 1 m/S 592 mmHg 92%
    20:00 +15°C° 0 mm 1 m/S 592 mmHg 90%
    21:00 +15°C° 0 mm 2 m/S 592 mmHg 88%
    22:00 +14°C° 0 mm 2 m/S 593 mmHg 86%
    23:00 +14°C° 0 mm 2 m/S 592 mmHg 86%

    übermorgen, 19 Januar, Sonntag

    Zeit Temperatur Niederschläge Wind Luftdruck Luftfeuchtigkeit
    00:00 +14°C° 0 mm 2 m/S 592 mmHg 87%
    01:00 +14°C° 0 mm 2 m/S 592 mmHg 87%
    02:00 +14°C° 0 mm 2 m/S 592 mmHg 87%
    03:00 +14°C° 0 mm 2 m/S 592 mmHg 87%
    04:00 +14°C° 0 mm 2 m/S 592 mmHg 87%
    05:00 +15°C° 0 mm 2 m/S 592 mmHg 87%
    06:00 +15°C° 0 mm 2 m/S 593 mmHg 88%
    07:00 +16°C° 0 mm 2 m/S 593 mmHg 88%
    08:00 +17°C° 0 mm 2 m/S 594 mmHg 81%
    09:00 +19°C° 0 mm 2 m/S 595 mmHg 75%
    10:00 +21°C° 0 mm 2 m/S 596 mmHg 68%
    11:00 +21°C° 0.2 mm 2 m/S 596 mmHg 69%
    12:00 +21°C° 0.2 mm 2 m/S 595 mmHg 70%
    13:00 +21°C° 0.2 mm 2 m/S 594 mmHg 71%
    14:00 +21°C° 0.1 mm 2 m/S 594 mmHg 73%
    15:00 +20°C° 0.1 mm 2 m/S 593 mmHg 75%
    16:00 +21°C° 0.1 mm 1 m/S 592 mmHg 78%
    17:00 +19°C° 0.1 mm 1 m/S 592 mmHg 83%
    18:00 +18°C° 0.1 mm 1 m/S 592 mmHg 88%
    19:00 +16°C° 0.1 mm 1 m/S 592 mmHg 93%
    20:00 +16°C° 0.1 mm 1 m/S 592 mmHg 92%
    21:00 +15°C° 0.1 mm 1 m/S 592 mmHg 90%
    22:00 +15°C° 0.1 mm 1 m/S 593 mmHg 89%
    23:00 +15°C° 0 mm 2 m/S 592 mmHg 88%

    20 Januar, Montag

    Zeit Temperatur Niederschläge Wind Luftdruck Luftfeuchtigkeit
    00:00 +14°C° 0 mm 2 m/S 592 mmHg 87%
    01:00 +14°C° 0 mm 2 m/S 592 mmHg 86%
    02:00 +14°C° 0 mm 2 m/S 591 mmHg 84%
    03:00 +14°C° 0 mm 2 m/S 591 mmHg 82%
    04:00 +13°C° 0 mm 2 m/S 591 mmHg 80%
    05:00 +14°C° 0 mm 2 m/S 591 mmHg 78%
    06:00 +15°C° 0 mm 2 m/S 592 mmHg 76%
    07:00 +15°C° 0 mm 2 m/S 593 mmHg 74%
    08:00 +17°C° 0 mm 2 m/S 594 mmHg 70%
    09:00 +19°C° 0 mm 2 m/S 595 mmHg 65%
    10:00 +21°C° 0 mm 2 m/S 596 mmHg 60%
    11:00 +21°C° 0.1 mm 2 m/S 596 mmHg 64%
    12:00 +21°C° 0.1 mm 2 m/S 595 mmHg 67%
    13:00 +21°C° 0.1 mm 2 m/S 594 mmHg 71%
    14:00 +21°C° 0.5 mm 2 m/S 593 mmHg 76%
    15:00 +20°C° 0.5 mm 2 m/S 593 mmHg 81%
    16:00 +20°C° 0.5 mm 1 m/S 592 mmHg 86%
    17:00 +19°C° 0.3 mm 1 m/S 592 mmHg 89%
    18:00 +18°C° 0.3 mm 1 m/S 591 mmHg 92%
    19:00 +15°C° 0.3 mm 0 m/S 591 mmHg 95%
    20:00 +15°C° 0.1 mm 0 m/S 592 mmHg 94%
    21:00 +15°C° 0.1 mm 0 m/S 592 mmHg 94%
    22:00 +15°C° 0.1 mm 1 m/S 592 mmHg 93%
    23:00 +15°C° 0 mm 1 m/S 592 mmHg 93%

    21 Januar, Dienstag

    Zeit Temperatur Niederschläge Wind Luftdruck Luftfeuchtigkeit
    00:00 +15°C° 0 mm 1 m/S 592 mmHg 93%
    01:00 +15°C° 0 mm 1 m/S 591 mmHg 93%
    02:00 +15°C° 0 mm 1 m/S 591 mmHg 93%
    03:00 +15°C° 0 mm 1 m/S 591 mmHg 93%
    04:00 +15°C° 0 mm 1 m/S 591 mmHg 92%
    05:00 +15°C° 0 mm 1 m/S 591 mmHg 91%
    06:00 +15°C° 0 mm 1 m/S 592 mmHg 89%
    07:00 +16°C° 0 mm 1 m/S 592 mmHg 88%
    08:00 +18°C° 0 mm 1 m/S 593 mmHg 82%
    09:00 +20°C° 0 mm 1 m/S 594 mmHg 76%
    10:00 +21°C° 0 mm 2 m/S 595 mmHg 70%
    11:00 +20°C° 0.3 mm 2 m/S 595 mmHg 73%
    12:00 +20°C° 0.3 mm 2 m/S 594 mmHg 77%
    13:00 +20°C° 0.3 mm 2 m/S 593 mmHg 80%
    14:00 +20°C° 0.5 mm 2 m/S 593 mmHg 83%
    15:00 +20°C° 0.5 mm 1 m/S 592 mmHg 85%
    16:00 +20°C° 0.5 mm 1 m/S 591 mmHg 88%
    17:00 +19°C° 0.1 mm 1 m/S 591 mmHg 91%
    18:00 +18°C° 0.1 mm 1 m/S 591 mmHg 93%
    19:00 +15°C° 0.1 mm 0 m/S 591 mmHg 95%
    20:00 +15°C° 0 mm 0 m/S 591 mmHg 94%
    21:00 +14°C° 0 mm 0 m/S 591 mmHg 93%
    22:00 +14°C° 0 mm 0 m/S 591 mmHg 91%
    23:00 +14°C° 0 mm 0 m/S 591 mmHg 90%

    22 Januar, Mittwoch

    Zeit Temperatur Niederschläge Wind Luftdruck Luftfeuchtigkeit
    00:00 +13°C° 0 mm 0 m/S 591 mmHg 89%
    01:00 +14°C° 0 mm 1 m/S 590 mmHg 87%
    02:00 +14°C° 0 mm 1 m/S 590 mmHg 87%
    03:00 +14°C° 0 mm 1 m/S 590 mmHg 86%
    04:00 +14°C° 0 mm 1 m/S 590 mmHg 85%
    05:00 +14°C° 0 mm 1 m/S 591 mmHg 83%
    06:00 +15°C° 0 mm 1 m/S 591 mmHg 82%
    07:00 +15°C° 0 mm 1 m/S 592 mmHg 80%
    08:00 +18°C° 0 mm 1 m/S 593 mmHg 76%
    09:00 +19°C° 0 mm 1 m/S 594 mmHg 72%
    10:00 +20°C° 0 mm 1 m/S 595 mmHg 68%
    11:00 +21°C° 0.1 mm 1 m/S 594 mmHg 70%
    12:00 +20°C° 0.1 mm 2 m/S 594 mmHg 72%
    13:00 +20°C° 0.1 mm 2 m/S 593 mmHg 75%
    14:00 +19°C° 0.4 mm 2 m/S 593 mmHg 79%
    15:00 +19°C° 0.4 mm 2 m/S 592 mmHg 84%
    16:00 +19°C° 0.4 mm 1 m/S 591 mmHg 88%
    17:00 +18°C° 0.1 mm 1 m/S 591 mmHg 90%
    18:00 +18°C° 0.1 mm 1 m/S 591 mmHg 92%
    19:00 +16°C° 0.1 mm 1 m/S 591 mmHg 94%
    20:00 +16°C° 0 mm 1 m/S 592 mmHg 93%
    21:00 +16°C° 0 mm 1 m/S 592 mmHg 92%
    22:00 +16°C° 0 mm 1 m/S 593 mmHg 91%
    23:00 +16°C° 0 mm 1 m/S 592 mmHg 91%
    Mehr zeigen